[[{"header":{"parameterUnit":"m.s-1","parameterCategory":1,"la1":30.2991,"la2":30.254,"lo1":-89.0895,"lo2":-89.0444,"dy":0.0017,"dx":0.0017,"nx":28,"ny":28,"refTime":"2023-10-24T21:00:00:Z","depth":0,"parameterNumber":2,"parameterNumberName":"U-component_of_WINDS"},"data":[0,0,0,0,0,0,0,0,0,0,0,0,0,0,0,0,0,0,0,0,0,0,0,0,0,0,0,0,0,0,0,0,0,0,0,0,0,0,0,0,0,0,0,0,0,0,0,0,0,0,0,0,0,0,0,0,0,0,-4.6205,-4.6207,0,-4.6356,-4.6357,-4.6359,-4.6342,-4.6339,-4.6337,-4.6335,-4.6486,-4.6492,-4.6498,0,0,0,0,0,0,0,0,0,0,0,0,0,-4.5902,-4.5908,-4.6205,-4.6207,-4.6209,-4.6355,-4.6357,-4.6359,-4.6342,-4.6339,-4.6336,-4.6333,-4.6484,-4.6491,-4.6499,0,0,0,0,0,0,0,0,0,0,0,0,0,-4.6041,-4.591,-4.6205,-4.6218,-4.6221,-4.6355,-4.6357,-4.636,-4.6343,-4.6339,-4.6335,-4.6332,-4.6481,-4.649,-4.65,-4.663,0,0,-4.6528,-4.6532,0,0,0,0,0,0,0,0,-4.6033,-4.6052,-4.6214,-4.6217,-4.622,-4.6326,-4.6306,-4.645,-4.6344,-4.6296,-4.6334,-4.633,-4.6435,-4.6448,-4.6484,-4.6637,-4.6643,-4.6529,-4.6535,-4.6539,-4.6542,0,0,0,0,0,0,0,-4.6024,-4.6046,-4.6264,-4.6216,-4.622,-4.6216,-4.6232,-4.6333,-4.6384,-4.63,-4.6299,-4.6317,-4.6436,-4.6475,-4.6488,-4.6645,-4.6529,-4.6537,-4.6543,-4.6547,-4.6914,-4.6918,0,0,0,0,0,0,-4.6011,-4.6038,-4.626,-4.6269,-4.6116,-4.6224,-4.6242,-4.6296,-4.6383,-4.6393,-4.632,-4.6316,-4.6461,-4.6477,-4.6493,-4.6651,-4.6539,-4.6548,-4.6553,-4.691,-4.6915,-4.6919,0,0,0,0,0,0,-4.6005,-4.6031,-4.6254,-4.6153,-4.6181,-4.6234,-4.6294,-4.6301,-4.6339,-4.6398,-4.6407,-4.6351,-4.6459,-4.648,-4.6596,-4.6656,-4.6552,-4.656,-4.6905,-4.6911,-4.6917,-4.6967,0,0,0,0,0,0,-4.5996,-4.6029,-4.6078,-4.6155,-4.6187,-4.6354,-4.6298,-4.6306,-4.6356,-4.6352,-4.6429,-4.6438,-4.6458,-4.6582,-4.6606,-4.6667,-4.6568,-4.69,-4.6908,-4.6915,-4.696,-4.6974,-4.6986,0,0,0,0,0,-4.5985,-4.6085,-4.6081,-4.6108,-4.625,-4.6358,-4.6376,-4.6397,-4.6361,-4.6411,-4.645,-4.6436,-4.6647,-4.6594,-4.6621,-4.6685,-4.6896,-4.6905,-4.6914,-4.6954,-4.6971,-4.6986,0,0,0,0,0,0,-4.6013,-4.6095,-4.6091,-4.6219,-4.6282,-4.6355,-4.6418,-4.6414,-4.6487,-4.648,-4.6503,-4.652,-4.6638,-4.6674,-4.6614,-4.6817,-4.6766,-4.6781,-4.6788,-4.6805,-4.6817,-4.6804,-4.6575,0,0,0,0,0,-4.6034,-4.6115,-4.6183,-4.629,-4.6322,-4.6365,-4.6413,-4.6424,-4.6489,-4.6515,-4.6562,-4.6625,-4.6706,-4.6758,-4.6835,-4.6967,-4.6983,-4.7025,-4.7038,-4.7048,-4.706,-4.7133,-4.7152,-4.695,-4.6949,-4.6949,0,0,-4.6078,-4.6134,-4.6183,-4.6297,-4.6347,-4.643,-4.6387,-4.6476,-4.6538,-4.6528,-4.6641,-4.6678,-4.6751,-4.6876,-4.6933,-4.6909,-4.712,-4.706,-4.7068,-4.7074,-4.7144,-4.7163,-4.718,-4.6956,-4.6955,-4.6954,0,0,-4.62,-4.6251,-4.6345,-4.6397,-4.6474,-4.6503,-4.6526,-4.6601,-4.6625,-4.674,-4.6734,-4.6809,-4.6947,-4.6999,-4.7043,-4.7191,-4.718,-4.7216,-4.7281,-4.7352,-4.7368,-4.7382,-4.7433,-4.7451,-4.7228,-4.7228,-4.7228,0,-4.6244,-4.637,-4.6394,-4.6485,-4.6535,-4.6534,-4.6629,-4.6678,-4.6776,-4.6811,-4.6784,-4.6959,-4.7007,-4.7144,-4.7181,-4.7218,-4.7244,-4.7204,-4.7364,-4.7378,-4.7392,-4.7441,-4.746,-4.7231,-4.7231,-4.723,-4.723,0,-4.642,-4.6508,-4.6575,-4.6671,-4.6729,-4.6822,-4.6861,-4.6918,-4.6926,-4.6957,-4.7075,-4.7134,-4.7224,-4.7258,-4.7266,-4.7397,-4.738,-4.7359,-4.7308,-4.7414,-4.746,-4.748,-4.7236,-4.7235,-4.7234,-4.7233,0,0,-4.6558,-4.667,-4.6694,-4.6738,-4.6825,-4.6893,-4.6987,-4.7076,-4.7124,-4.7193,-4.7272,-4.7391,-4.7373,-4.7424,-4.7438,-4.7501,-4.7613,-4.7472,-4.7474,-4.7494,-4.7761,-4.7774,-4.7795,-4.7609,-4.7613,-4.7616,-4.7754,0,-4.6686,-4.6852,-4.6879,-4.7025,-4.7106,-4.7108,-4.719,-4.7253,-4.7287,-4.736,-4.7398,-4.7482,-4.7452,-4.7482,-4.7545,-4.7586,-4.7666,-4.7577,-4.7681,-4.7684,-4.7658,-4.7819,-4.7833,-4.796,-4.7772,-4.7775,-4.7778,0,-4.6857,-4.6932,-4.7086,-4.7165,-4.72,-4.7273,-4.7358,-4.7429,-4.7501,-4.7521,-4.758,-4.7588,-4.7686,-4.7635,-4.777,-4.7709,-4.7754,-4.7781,-4.7787,-4.7794,-4.7734,-4.7828,-4.8001,-4.8019,-4.7807,-4.7804,-4.7802,0,-4.6939,-4.708,-4.7191,-4.7229,-4.7323,-4.7374,-4.7416,-4.7485,-4.7537,-4.7613,-4.7647,-4.7733,-4.7778,-4.7845,-4.7876,-4.7836,-4.8009,-4.796,-4.8027,-4.8026,-4.8059,-4.8056,-4.8239,-4.8095,-4.8094,-4.8094,-4.8094,0,-4.7078,-4.7171,-4.7229,-4.7296,-4.7402,-4.7434,-4.7537,-4.7578,-4.764,-4.7715,-4.7724,-4.7794,-4.7833,-4.791,-4.7935,-4.8043,-4.8064,-4.8083,-4.8088,-4.808,-4.8077,-4.8106,-4.8097,-4.8099,-4.8098,-4.8097,-4.8096,0,-4.7185,-4.7228,-4.7348,-4.743,-4.7452,-4.7526,-4.7595,-4.7662,-4.7697,-4.7793,-4.7817,-4.7873,-4.7964,-4.8004,-4.8115,-4.8133,-4.8255,-4.8255,-4.8231,-4.8232,-4.8296,-4.8288,-4.8501,-4.853,-4.8369,-4.837,-4.8372,0,-4.7269,-4.7341,-4.7431,-4.7483,-4.7527,-4.761,-4.7665,-4.77,-4.7757,-4.7846,-4.7902,-4.7994,-4.8068,-4.8214,-4.8264,-4.835,-4.8351,-4.842,-4.8363,-4.8354,-4.8349,-4.8343,-4.835,-4.8428,-4.843,-4.8431,-4.8432,0,-4.7412,-4.7431,-4.7509,-4.7597,-4.7663,-4.7733,-4.7801,-4.7844,-4.789,-4.7953,-4.8048,-4.8106,-4.8222,-4.8313,-4.8403,-4.8446,-4.8447,-4.8451,-4.847,-4.8461,-4.8443,-4.8451,-4.8255,-4.8444,-4.8443,-4.8442,-4.8441,-4.8441,-4.7509,-4.7573,-4.7647,-4.7735,-4.7792,-4.7857,-4.7923,-4.7969,-4.8048,-4.8145,-4.8162,-4.8262,-4.8335,-4.8456,-4.8503,-4.8582,-4.8565,-4.8594,-4.8601,-4.8606,-4.8609,-4.8434,-4.8599,-4.8599,-4.8599,-4.8599,-4.8598,0,-4.765,-4.7699,-4.778,-4.7877,-4.7947,-4.7945,-4.8022,-4.808,-4.8169,-4.8237,-4.8312,-4.8421,-4.851,-4.857,-4.866,-4.8712,-4.8715,-4.8734,-4.8729,-4.8738,-4.8621,-4.8593,-4.873,-4.873,-4.873,-4.873,-4.873,-4.873,-4.7731,-4.7841,-4.7869,-4.8007,-4.8056,-4.8154,-4.8198,-4.8259,-4.8314,-4.8435,-4.851,-4.8549,-4.8614,-4.871,-4.8792,-4.8807,-4.8839,-4.8859,-4.8873,-4.8761,-4.8747,-4.8733,-4.8708,-4.8867,-4.8867,-4.8984,-4.8985,-4.8986]},{"header":{"parameterUnit":"m.s-1","parameterCategory":1,"la1":30.2991,"la2":30.254,"lo1":-89.0895,"lo2":-89.0444,"dy":0.0017,"dx":0.0017,"nx":28,"ny":28,"refTime":"2023-10-24T21:00:00:Z","depth":0,"parameterNumber":3,"parameterNumberName":"V-component_of_WINDS"},"data":[0,0,0,0,0,0,0,0,0,0,0,0,0,0,0,0,0,0,0,0,0,0,0,0,0,0,0,0,0,0,0,0,0,0,0,0,0,0,0,0,0,0,0,0,0,0,0,0,0,0,0,0,0,0,0,0,0,0,3.0086,3.0086,0,3.0123,3.0124,3.0124,3.0039,3.0036,3.0034,3.0031,3.0072,3.0075,3.0079,0,0,0,0,0,0,0,0,0,0,0,0,0,2.9946,2.9949,3.0086,3.0086,3.0087,3.0123,3.0124,3.0124,3.004,3.0036,3.0033,3.003,3.0071,3.0075,3.0079,0,0,0,0,0,0,0,0,0,0,0,0,0,2.9998,2.995,3.0086,3.0049,3.0046,3.0123,3.0124,3.0125,3.004,3.0036,3.0032,3.0028,3.0069,3.0075,3.008,3.0196,0,0,3.0097,3.0099,0,0,0,0,0,0,0,0,2.9995,3.0003,3.0054,3.0052,3.0048,3.0072,3.0089,3.0148,3.0041,3.0043,3.0031,3.0026,3.0076,3.008,3.0096,3.0197,3.0199,3.0097,3.01,3.0103,3.0104,0,0,0,0,0,0,0,2.9992,3.0001,3.0101,3.0055,3.0052,3.0032,3.0035,3.01,3.0082,3.0042,3.0036,3.0042,3.0073,3.0091,3.0097,3.02,3.0097,3.0102,3.0105,3.0107,3.0401,3.0405,0,0,0,0,0,0,2.9992,2.9999,3.01,3.0102,3.0011,3.0038,3.0041,3.0069,3.0081,3.0079,3.0045,3.0037,3.0084,3.009,3.0098,3.0235,3.0103,3.0108,3.0111,3.0396,3.0402,3.0407,0,0,0,0,0,0,2.999,3.0002,3.0098,3.0049,3.0059,3.0045,3.0077,3.0072,3.0089,3.0083,3.0079,3.0066,3.0081,3.009,3.0172,3.0235,3.011,3.0115,3.0391,3.0398,3.0404,3.051,0,0,0,0,0,0,2.9986,3.0002,3.0044,3.005,3.0062,3.0171,3.0081,3.0076,3.0099,3.0089,3.0102,3.01,3.0079,3.0165,3.0178,3.024,3.0119,3.0385,3.0394,3.0402,3.05,3.0519,3.0535,0,0,0,0,0,2.9981,3.0072,3.0046,3.0059,3.0115,3.0174,3.0181,3.0154,3.0104,3.0148,3.0144,3.01,3.0227,3.0174,3.0188,3.0253,3.0381,3.0392,3.0402,3.0493,3.0516,3.0535,0,0,0,0,0,0,3.0073,3.0072,3.0043,3.0138,3.0157,3.016,3.0213,3.0179,3.0212,3.0202,3.0168,3.0171,3.0261,3.0265,3.0206,3.0367,3.0296,3.0309,3.036,3.0382,3.0399,3.0395,3.0124,0,0,0,0,0,3.0104,3.0151,3.0149,3.0233,3.0244,3.0228,3.0252,3.023,3.0248,3.0256,3.0258,3.0279,3.0323,3.0353,3.0394,3.0502,3.0504,3.0554,3.0571,3.0586,3.0597,3.0657,3.068,3.044,3.044,3.044,0,0,3.0169,3.0174,3.0206,3.0252,3.0263,3.0315,3.0234,3.0292,3.033,3.0265,3.0342,3.0346,3.0366,3.0463,3.0505,3.0469,3.0665,3.0599,3.061,3.0614,3.067,3.0693,3.0713,3.0447,3.0446,3.0445,0,0,3.0313,3.0322,3.0394,3.0408,3.0427,3.0416,3.0434,3.0443,3.0443,3.052,3.0473,3.052,3.0597,3.0614,3.0633,3.079,3.0751,3.0804,3.0894,3.0953,3.0972,3.0988,3.1045,3.1065,3.0816,3.0816,3.0816,0,3.0391,3.0465,3.0435,3.0496,3.0519,3.0463,3.0537,3.0553,3.0585,3.0603,3.0562,3.066,3.067,3.077,3.0809,3.0826,3.0847,3.0801,3.0971,3.0988,3.1003,3.1056,3.1077,3.0823,3.0822,3.0821,3.0821,0,3.0562,3.0614,3.0671,3.0703,3.0732,3.0799,3.0781,3.0815,3.0792,3.0786,3.0868,3.0879,3.0922,3.0944,3.0922,3.1043,3.102,3.0977,3.0904,3.1032,3.1082,3.1102,3.0832,3.0829,3.0827,3.0826,0,0,3.076,3.0778,3.0799,3.0814,3.0834,3.0875,3.0942,3.0984,3.1014,3.1039,3.1095,3.1164,3.1124,3.1146,3.1126,3.1178,3.1303,3.1128,3.1128,3.116,3.1439,3.1471,3.1495,3.1278,3.1282,3.1285,3.1437,0,3.0903,3.1016,3.0993,3.1104,3.1154,3.1104,3.1163,3.1182,3.118,3.1224,3.1222,3.1271,3.1215,3.1228,3.1277,3.1277,3.1358,3.1266,3.1331,3.1334,3.1326,3.1521,3.1555,3.1698,3.1457,3.146,3.1462,0,3.1084,3.1116,3.1233,3.1247,3.1267,3.1319,3.1358,3.14,3.1422,3.1417,3.1444,3.1415,3.1484,3.1413,3.1508,3.1446,3.1472,3.1477,3.1481,3.1485,3.1405,3.153,3.1742,3.1764,3.1493,3.149,3.1488,0,3.1218,3.1291,3.137,3.1385,3.1404,3.1442,3.1452,3.1471,3.1499,3.1533,3.1551,3.1594,3.1617,3.1652,3.1636,3.1585,3.1735,3.1662,3.1734,3.1735,3.1766,3.1764,3.1985,3.1785,3.1784,3.1784,3.1784,0,3.1379,3.1452,3.1431,3.148,3.1562,3.1537,3.1619,3.1623,3.1641,3.1691,3.1652,3.1701,3.1677,3.1725,3.1714,3.1796,3.1807,3.1806,3.1802,3.1809,3.1809,3.1824,3.1813,3.179,3.1788,3.1787,3.1786,0,3.154,3.1529,3.1613,3.1625,3.163,3.169,3.1701,3.1748,3.1744,3.1809,3.1823,3.1818,3.1872,3.1861,3.1921,3.1913,3.2016,3.2,3.2008,3.2004,3.2077,3.2071,3.2315,3.2346,3.2126,3.2128,3.213,0,3.1643,3.1698,3.1717,3.1748,3.176,3.1811,3.1839,3.1818,3.185,3.1883,3.1927,3.1978,3.2017,3.2108,3.211,3.2157,3.2141,3.2224,3.2148,3.2154,3.2143,3.2139,3.2146,3.2238,3.2241,3.2243,3.2245,0,3.1827,3.182,3.1861,3.1904,3.1939,3.1971,3.1999,3.2027,3.2009,3.2048,3.2103,3.2134,3.2197,3.2249,3.2293,3.2305,3.2273,3.2269,3.2288,3.2295,3.2298,3.2298,3.2049,3.2263,3.2261,3.226,3.2259,3.2258,3.1962,3.201,3.2031,3.208,3.21,3.2128,3.2174,3.2177,3.2222,3.2271,3.2257,3.2321,3.2346,3.2402,3.242,3.247,3.244,3.2467,3.2474,3.2481,3.249,3.2291,3.2478,3.2478,3.2477,3.2477,3.2477,0,3.2144,3.2156,3.2201,3.2243,3.2283,3.225,3.2281,3.2317,3.2373,3.2399,3.244,3.2505,3.2557,3.2565,3.2614,3.2654,3.2641,3.2668,3.2664,3.2668,3.2515,3.2493,3.2678,3.2678,3.2678,3.2677,3.2677,3.2677,3.2243,3.2322,3.2318,3.2409,3.2421,3.2482,3.2503,3.253,3.2551,3.2626,3.2668,3.2674,3.2694,3.2745,3.2792,3.2793,3.2813,3.2846,3.2842,3.2698,3.2678,3.2659,3.2638,3.2851,3.2851,3.299,3.2992,3.2993]}]]